User: anonymous   Login
Location: Hurecourt
(47.9030°N, 6.0653°E)
Time: 00:42:33
(UTC+00:00)
Language:

Cosmos 220 Rocket - Orbit

View from above orbital plane
View from above orbital plane
View from above satellite
View from above satellite

Ground track
Ground track

The orbit data is extracted from the following two-line orbital elements,

1  3230U 68040B   20273.53442659 +.00000253 +00000-0 +29706-4 0  9996
2  3230 074.0383 359.8879 0030619 349.5594 010.4948 14.90650218793104
Epoch (UTC): 29 September 2020 12:49:34
Eccentricity: 0.0030619
inclination: 74.0383°
perigee height: 574 km
apogee height: 617 km
right ascension of ascending node: 359.8879°
argument of perigee: 349.5594°
revolutions per day: 14.90650218
mean anomaly at epoch: 10.4948°
orbit number at epoch: 79310

The dashed part of the orbit path shows where the satellite is in the earth's shadow,  

DLR